Regional Weather Roundup
Issued by NWS Upton, NY

Current Version | Previous Version | Text Only | Print | Product List | Glossary On
Versions: 1 2 3 4 5 6 7 8 9 10 11 12 13 14 15 16 17 18 19 20 21 22 23 24 25 26 27 28 29 30 31 32 33 34 35 36 37 38 39 40 41 42 43 44 45 46 47 48 49 50
186
ASUS41 KOKX 201409
RWROKX

Regional Weather Roundup
National Weather Service New York NY
900 AM EST SAT JAN 20 2018

Note: "FAIR" indicates few or no clouds below 12,000 feet with no
significant weather and/or obstructions to visibility.

NYZ071-072-176-178-NJZ106-104-201500-
New York City Metro Area

CITY           SKY/WX    TMP DP  RH WIND       PRES   REMARKS
Central Park   FAIR      42  22  44 VRB7G26   29.90R
Bronx Bot Gard   N/A     41  23  48 SW16      29.88S
Bronx Lehman C   N/A     41  23  48 SW10        N/A
LaGuardia Arpt PTSUNNY   43  22  43 SW14G24   29.88R
Queens College   N/A     41  23  48 W13         N/A
Kennedy Intl   PTSUNNY   40  26  57 SW15      29.91R WCI  32
Breezy Point     N/A     39 N/A N/A W9          N/A  WCI  33
Brooklyn Coll    N/A     43  25  49 SW10G22     N/A
Staten Island    N/A     41  25  52 SW8         N/A
Newark/Liberty PTSUNNY   40  22  48 SW14      29.89R WCI  32
Teterboro      FAIR      42  24  49 W13G18    29.88R
$$

NYZ177-179-078>081-201500-
Long Island New York

CITY           SKY/WX    TMP DP  RH WIND       PRES   REMARKS
Jones Beach      N/A     39 N/A N/A W10         N/A  WCI  32
Wantagh          N/A     39  30  70 SW9         N/A  WCI  33
Matinecock Pt    N/A     39 N/A N/A SW21        N/A  WCI  29
Farmingdale    FAIR      42  23  46 W15G25    29.88R
MacArthur/ISP  PTSUNNY   43  26  51 W15       29.86R
Shirley        FAIR      42  26  53 W17G29    29.87S
Mt Sinai Harb    N/A    N/A N/A N/A W9G16       N/A
Westhampton    FAIR      42  25  50 SW15G29   29.87S
East Hampton   FAIR      42  26  53 SW13G21   29.84S
Southold         N/A     41  27  56 SW12        N/A
Montauk          N/A     45  25  45 SW16G24   29.82F
$$

NYZ052-065-067-201500-
Hudson Valley

CITY           SKY/WX    TMP DP  RH WIND       PRES   REMARKS
White Plains   FAIR      40  22  48 SW10G17   29.85R WCI  33
Larchmont Harb   N/A     39 N/A N/A SW21        N/A  WCI  29
Croton On Huds   N/A     39 N/A N/A S9          N/A  WCI  33
Somers           N/A     36  25  64 SW5         N/A  WCI  32
Brewster         N/A     34  23  64 W2          N/A
Newburgh       PTSUNNY   37  25  60 W6        29.84R WCI  33
Montgomery     FAIR      35  23  61 SW8       29.83R WCI  29
Otisville        N/A     36  25  64 S3          N/A
Warwick          N/A     39  27  60 W12         N/A  WCI  32
Suffern          N/A     39  25  56 SW5         N/A
Poughkeepsie   FAIR      37  22  54 SW8       29.85R WCI  31
Albany         PTSUNNY   31  20  63 S5        29.79R WCI  26
$$

NJZ001-105-106-008-010-013-015-019>022-104-201500-
New Jersey

CITY           SKY/WX    TMP DP  RH WIND       PRES   REMARKS
Newark/Liberty PTSUNNY   40  22  48 SW14      29.89R WCI  32
Teterboro      FAIR      42  24  49 W13G18    29.88R
Caldwell       FAIR      40  22  48 VRB7      29.88R
Somerville     FAIR      38  26  62 VRB3      29.90R
Linden         FAIR      40  22  48 W6        29.90R
Perth Amboy      N/A     41 N/A N/A W16G22      N/A
Sussex         FAIR      36  24  62 SW8G16    29.85R WCI  30
Andover        NOT AVBL
Trenton        FAIR      42  24  49 SW8       29.92R
Millville      FAIR      36  20  52 SW9       30.01R WCI  29
Atlantic City  FAIR      39  19  44 SW7       30.00R WCI  34
Wrightstown    FAIR      44  22  41 W20       29.92R
Toms River     FAIR      41  20  43 SW14      29.96R
Belmar         FAIR      44  22  41 SW16G25   29.93R
$$

PAZ047>061-062-071-201500-
Eastern Pennsylvania

CITY           SKY/WX    TMP DP  RH WIND       PRES   REMARKS
Philadelphia   PTSUNNY   37  20  50 SW15      29.97S WCI  28
Allentown      FAIR      36  23  59 SW9       29.91R WCI  29
Scranton       FAIR      38  24  57 SW14      29.88R WCI  30
$$

CTZ002-004>006-009-010-012-RIZ004-006-007-MAZ004-011-015-201500-
Southern New England

 In CT

CITY           SKY/WX    TMP DP  RH WIND       PRES   REMARKS
Bradley Intl   PTSUNNY   38  23  55 S12       29.78R WCI  30
Hartford       FAIR      40  23  50 SW12      29.80R WCI  33
Danbury        FAIR      37  23  56 W10       29.84R WCI  30
Wtrbury/Oxford FAIR      35  22  58 W10       29.80R WCI  27
Norwalk Harbor   N/A     36 N/A N/A SW18        N/A  WCI  25
Bridgeport     FAIR      39  27  62 SW8       29.84R WCI  33
Meriden        FAIR      39  22  50 SW6       29.81R WCI  35
New Haven      FAIR      39  25  57 SW12      29.84R WCI  32
Chester        FAIR      39  23  52 SW15G25   29.79S WCI  31
Groton         FAIR      41  28  60 SW17G25   29.80S
Willimantic    FAIR      40  23  50 W6        29.78R

 In RI

CITY           SKY/WX    TMP DP  RH WIND       PRES   REMARKS
Providence     PTSUNNY   41  24  51 SW17G25   29.76S
Block Island   FAIR      41  29  62 SW24G30   29.82S
Westerly       FAIR      43  26  51 SW18G33   29.80S

In MA

CITY           SKY/WX    TMP DP  RH WIND       PRES   REMARKS
Boston         PTSUNNY   38  23  55 SW21      29.69S WCI  28
Worcester      FAIR      35  19  52 W24G32    29.66R WCI  23
Westfield      FAIR      27  22  81 NW5       29.75R WCI  22
Provincetown   FAIR      39  30  70 SW18      29.72R WCI  30
Nantucket      FAIR      41  37  86 SW22      29.80S
$$

ANZ330-335-338-340-345-350-353-355-201500-
Coastal Marine Observations


STATION/POSITION TIME  SKY/WX   TEMP    WIND        PRES    VSBY  WAVE
                                AIR SEA DIR/SP/G                  HT/PER
                 (UTC)          (F)     (DEG/KT/KT) (MB)    (MI)  (FT/S)
NY Harb Entrance 1250            42 40  240/ 17/ 21 1011.7          3/ 5
20 S Fire Island 1250            44 42  250/ 19/ 23 1012.1          4/ 5
15 E Barnegat Li 1330               43                N/A           3/ 5
Hudson Canyon    1250            48 48  230/ 16/ 17 1013.6          5/ 6
Kings Point      1348            40 31  250/ 12/ 14 1012.8
Execution Rocks  NOT AVBL
Western LI Sound NOT AVBL
Central LI Sound 1315            38     220/ 16/ 17   N/A           2
Robbins Reef     1348            40     250/ 15/ 18 1012.7
$$


>>>>>>>>>>>>>>>>>>>>>>>>>>>> KEY <<<<<<<<<<<<<<<<<<<<<<<<<<<
>                                                          <
>     SKY/WX - Sky Condition/Present Weather               <
>     TMP    - Temperature in Fahrenheit                   <
>     DP     - Dew Point in Fahrenheit                     <
>     RH     - Relative Humidity in Percent                <
>     WIND   - Direction (from) and Speed in MPH           <
>     PRES   - Mean Sea Level Pressure (inches of Hg)      <
>     WCI    - Wind Chill Index                            <
>     VSB    - Visibility in Miles                         <
>     HX     - Heat Index                                  <
>     TC     - Temperature in Celsius                      <
>     VRB    - Varibale Wind Direction                     <
>                                                          <
>>>>>>>>>>>>>>>>>>>>>>>>>>>> KEY <<<<<<<<<<<<<<<<<<<<<<<<<<<




USA.gov is the U.S. government's official web portal to all federal, state and local government web resources and services.